KUIPER-00159

Last updated on Sun Mar 15 2026 00:02:06 GMT+0000 (Coordinated Universal Time)

1 67764U 26030A 26073.57730069 .00067391 00000+0 18854-2 0 9999 2 67764 51.8842 195.5927 0005653 51.9513 308.1983 15.36019423 5844
UTC large
Height (km)
Speed (km/s)
/
Latitude / Longitude
Inclination (degrees)
Orbital Period (minutes)
Azimuth
Elevation
Range (km)
Doppler Factor

Next 0 passes for location: London (51.5072 / 0.1276)

Sorry there are no passes over London.